Time,TemperatureF,DewpointF,PressureIn,WindDirection,WindDirectionDegrees,WindSpeedMPH,WindSpeedGustMPH,Humidity,HourlyPrecipIn,Conditions,Clouds,dailyrainin,SoftwareType,DateUTC
2013-05-18 00:00:00,48.5,38.8,30.04,West,271,0.0,0.0,69,0.00,,,0.00,Wunderground v.1.15,2013-05-18 07:00:00,
2013-05-18 00:05:00,48.3,38.6,30.04,West,271,0.0,0.0,69,0.00,,,0.00,Wunderground v.1.15,2013-05-18 07:05:00,
2013-05-18 00:15:00,47.9,38.2,30.04,West,271,0.0,0.0,69,0.00,,,0.00,Wunderground v.1.15,2013-05-18 07:15:00,
2013-05-18 00:20:00,47.7,38.0,30.04,West,271,0.0,0.0,69,0.00,,,0.00,Wunderground v.1.15,2013-05-18 07:20:00,
2013-05-18 00:25:00,47.4,37.7,30.04,West,271,0.0,0.0,69,0.00,,,0.00,Wunderground v.1.15,2013-05-18 07:25:00,
2013-05-18 00:30:00,47.1,37.8,30.05,West,271,0.0,0.0,70,0.00,,,0.00,Wunderground v.1.15,2013-05-18 07:30:00,
2013-05-18 00:40:00,46.8,37.5,30.05,West,271,0.0,0.0,70,0.00,,,0.00,Wunderground v.1.15,2013-05-18 07:40:00,
2013-05-18 00:45:00,46.5,37.6,30.05,West,271,0.0,1.0,71,0.00,,,0.00,Wunderground v.1.15,2013-05-18 07:45:00,
2013-05-18 00:50:00,46.2,37.3,30.05,West,271,0.0,0.0,71,0.00,,,0.00,Wunderground v.1.15,2013-05-18 07:50:00,
2013-05-18 00:55:00,45.8,36.9,30.05,West,271,0.0,0.0,71,0.00,,,0.00,Wunderground v.1.15,2013-05-18 07:55:00,
2013-05-18 01:00:00,45.7,37.2,30.05,West,271,0.0,0.0,72,0.00,,,0.00,Wunderground v.1.15,2013-05-18 08:00:00,
2013-05-18 01:10:00,45.4,37.2,30.05,West,271,0.0,0.0,73,0.00,,,0.00,Wunderground v.1.15,2013-05-18 08:10:00,
2013-05-18 01:15:00,45.2,37.1,30.05,West,271,0.0,0.0,73,0.00,,,0.00,Wunderground v.1.15,2013-05-18 08:15:00,
2013-05-18 01:20:00,45.1,37.0,30.05,West,271,1.0,2.0,73,0.00,,,0.00,Wunderground v.1.15,2013-05-18 08:20:00,
2013-05-18 01:30:00,45.2,37.4,30.05,NW,323,3.0,3.0,74,0.00,,,0.00,Wunderground v.1.15,2013-05-18 08:30:00,
2013-05-18 01:35:00,45.2,37.4,30.05,NW,304,4.0,4.0,74,0.00,,,0.00,Wunderground v.1.15,2013-05-18 08:35:00,
2013-05-18 01:40:00,45.4,37.6,30.05,NW,319,4.0,5.0,74,0.00,,,0.00,Wunderground v.1.15,2013-05-18 08:40:00,
2013-05-18 01:45:00,45.4,37.6,30.05,NW,319,3.0,5.0,74,0.00,,,0.00,Wunderground v.1.15,2013-05-18 08:45:00,
2013-05-18 01:50:00,45.4,37.6,30.05,NW,319,1.0,1.0,74,0.00,,,0.00,Wunderground v.1.15,2013-05-18 08:50:00,
2013-05-18 02:00:00,45.1,37.3,30.06,NW,319,0.0,0.0,74,0.00,,,0.00,Wunderground v.1.15,2013-05-18 09:00:00,
2013-05-18 02:05:00,44.6,36.8,30.06,NW,319,1.0,1.0,74,0.00,,,0.00,Wunderground v.1.15,2013-05-18 09:05:00,
2013-05-18 02:10:00,44.5,37.1,30.06,NW,319,1.0,1.0,75,0.00,,,0.00,Wunderground v.1.15,2013-05-18 09:10:00,
2013-05-18 02:20:00,43.9,36.8,30.05,NW,319,0.0,0.0,76,0.00,,,0.00,Wunderground v.1.15,2013-05-18 09:20:00,
2013-05-18 02:25:00,43.8,36.4,30.05,NW,319,0.0,0.0,75,0.00,,,0.00,Wunderground v.1.15,2013-05-18 09:25:00,
2013-05-18 02:30:00,43.6,36.2,30.06,NW,319,0.0,0.0,75,0.00,,,0.00,Wunderground v.1.15,2013-05-18 09:30:00,
2013-05-18 02:35:00,43.6,36.5,30.06,NW,319,0.0,0.0,76,0.00,,,0.00,Wunderground v.1.15,2013-05-18 09:35:00,
2013-05-18 02:40:00,43.5,36.4,30.06,NW,319,0.0,0.0,76,0.00,,,0.00,Wunderground v.1.15,2013-05-18 09:40:00,
2013-05-18 02:50:00,43.2,36.5,30.06,NW,319,0.0,0.0,77,0.00,,,0.00,Wunderground v.1.15,2013-05-18 09:50:00,
2013-05-18 02:55:00,43.1,36.4,30.06,NW,319,0.0,0.0,77,0.00,,,0.00,Wunderground v.1.15,2013-05-18 09:55:00,
2013-05-18 03:00:00,43.1,36.4,30.06,NW,319,0.0,0.0,77,0.00,,,0.00,Wunderground v.1.15,2013-05-18 10:00:00,
2013-05-18 03:05:00,42.9,36.5,30.06,NW,319,1.0,1.0,78,0.00,,,0.00,Wunderground v.1.15,2013-05-18 10:05:00,
2013-05-18 03:15:00,42.8,36.4,30.06,NW,319,0.0,1.0,78,0.00,,,0.00,Wunderground v.1.15,2013-05-18 10:15:00,
2013-05-18 03:20:00,42.8,36.7,30.06,NW,319,1.0,1.0,79,0.00,,,0.00,Wunderground v.1.15,2013-05-18 10:20:00,
2013-05-18 03:25:00,42.8,36.7,30.06,NW,319,1.0,1.0,79,0.00,,,0.00,Wunderground v.1.15,2013-05-18 10:25:00,
2013-05-18 03:30:00,42.8,36.7,30.06,NW,319,0.0,0.0,79,0.00,,,0.00,Wunderground v.1.15,2013-05-18 10:30:00,
2013-05-18 03:35:00,42.6,36.5,30.06,NW,319,0.0,0.0,79,0.00,,,0.00,Wunderground v.1.15,2013-05-18 10:35:00,
2013-05-18 03:45:00,42.5,36.4,30.06,NW,319,0.0,2.0,79,0.00,,,0.00,Wunderground v.1.15,2013-05-18 10:45:00,
2013-05-18 03:50:00,42.3,36.3,30.06,NW,319,1.0,1.0,79,0.00,,,0.00,Wunderground v.1.15,2013-05-18 10:50:00,
2013-05-18 03:55:00,42.3,36.6,30.06,NW,319,1.0,1.0,80,0.00,,,0.00,Wunderground v.1.15,2013-05-18 10:55:00,
2013-05-18 04:05:00,42.2,36.5,30.07,NW,319,0.0,0.0,80,0.00,,,0.00,Wunderground v.1.15,2013-05-18 11:05:00,
2013-05-18 04:10:00,42.2,36.5,30.07,NW,319,0.0,0.0,80,0.00,,,0.00,Wunderground v.1.15,2013-05-18 11:10:00,
2013-05-18 04:15:00,42.1,36.4,30.07,NW,319,0.0,0.0,80,0.00,,,0.00,Wunderground v.1.15,2013-05-18 11:15:00,
2013-05-18 04:20:00,42.1,36.4,30.07,NW,319,0.0,0.0,80,0.00,,,0.00,Wunderground v.1.15,2013-05-18 11:20:00,
2013-05-18 04:30:00,41.8,36.1,30.07,NW,319,0.0,0.0,80,0.00,,,0.00,Wunderground v.1.15,2013-05-18 11:30:00,
2013-05-18 04:35:00,41.6,35.9,30.07,NW,319,0.0,0.0,80,0.00,,,0.00,Wunderground v.1.15,2013-05-18 11:35:00,
2013-05-18 04:40:00,41.6,36.2,30.07,NW,319,0.0,0.0,81,0.00,,,0.00,Wunderground v.1.15,2013-05-18 11:40:00,
2013-05-18 04:50:00,41.5,36.1,30.07,NW,319,0.0,0.0,81,0.00,,,0.00,Wunderground v.1.15,2013-05-18 11:50:00,
2013-05-18 05:00:00,41.5,36.1,30.07,NW,319,0.0,0.0,81,0.00,,,0.00,Wunderground v.1.15,2013-05-18 12:00:00,
2013-05-18 05:05:00,41.5,36.1,30.07,NW,319,0.0,0.0,81,0.00,,,0.00,Wunderground v.1.15,2013-05-18 12:05:00,
2013-05-18 05:10:00,41.3,35.9,30.07,NW,319,0.0,0.0,81,0.00,,,0.00,Wunderground v.1.15,2013-05-18 12:10:00,
2013-05-18 05:20:00,41.2,35.8,30.07,NW,319,0.0,0.0,81,0.00,,,0.00,Wunderground v.1.15,2013-05-18 12:20:00,
2013-05-18 05:25:00,41.1,36.0,30.07,NW,319,0.0,0.0,82,0.00,,,0.00,Wunderground v.1.15,2013-05-18 12:25:00,
2013-05-18 05:30:00,41.1,36.0,30.07,NW,319,0.0,0.0,82,0.00,,,0.00,Wunderground v.1.15,2013-05-18 12:30:00,
2013-05-18 05:35:00,41.1,36.0,30.07,NW,319,0.0,0.0,82,0.00,,,0.00,Wunderground v.1.15,2013-05-18 12:35:00,
2013-05-18 05:45:00,40.8,36.0,30.08,NW,319,0.0,0.0,83,0.00,,,0.00,Wunderground v.1.15,2013-05-18 12:45:00,
2013-05-18 05:50:00,40.6,35.8,30.08,NW,319,0.0,0.0,83,0.00,,,0.00,Wunderground v.1.15,2013-05-18 12:50:00,
2013-05-18 05:55:00,40.6,35.8,30.08,NW,319,0.0,0.0,83,0.00,,,0.00,Wunderground v.1.15,2013-05-18 12:55:00,
2013-05-18 06:00:00,40.5,35.7,30.09,NW,319,0.0,0.0,83,0.00,,,0.00,Wunderground v.1.15,2013-05-18 13:00:00,
2013-05-18 06:05:00,40.5,35.7,30.09,NW,319,0.0,0.0,83,0.00,,,0.00,Wunderground v.1.15,2013-05-18 13:05:00,
2013-05-18 06:15:00,40.6,36.1,30.09,NW,319,0.0,0.0,84,0.00,,,0.00,Wunderground v.1.15,2013-05-18 13:15:00,
2013-05-18 06:20:00,40.6,36.1,30.09,NW,319,0.0,0.0,84,0.00,,,0.00,Wunderground v.1.15,2013-05-18 13:20:00,
2013-05-18 06:25:00,40.8,36.3,30.09,NW,319,0.0,0.0,84,0.00,,,0.00,Wunderground v.1.15,2013-05-18 13:25:00,
2013-05-18 06:35:00,41.1,36.6,30.10,NW,319,0.0,0.0,84,0.00,,,0.00,Wunderground v.1.15,2013-05-18 13:35:00,
2013-05-18 06:45:00,41.6,37.1,30.10,NW,319,0.0,0.0,84,0.00,,,0.00,Wunderground v.1.15,2013-05-18 13:45:00,
2013-05-18 06:50:00,42.2,37.4,30.10,NW,319,0.0,0.0,83,0.00,,,0.00,Wunderground v.1.15,2013-05-18 13:50:00,
2013-05-18 06:55:00,42.6,37.8,30.10,NW,319,0.0,0.0,83,0.00,,,0.00,Wunderground v.1.15,2013-05-18 13:55:00,
2013-05-18 07:00:00,43.3,38.2,30.11,NW,319,0.0,0.0,82,0.00,,,0.00,Wunderground v.1.15,2013-05-18 14:00:00,
2013-05-18 07:10:00,44.8,39.0,30.11,NW,319,0.0,0.0,80,0.00,,,0.00,Wunderground v.1.15,2013-05-18 14:10:00,
2013-05-18 07:15:00,45.4,38.9,30.11,NW,319,0.0,0.0,78,0.00,,,0.00,Wunderground v.1.15,2013-05-18 14:15:00,
2013-05-18 07:25:00,47.0,40.2,30.11,NW,319,0.0,0.0,77,0.00,,,0.00,Wunderground v.1.15,2013-05-18 14:25:00,
2013-05-18 07:35:00,48.8,40.5,30.12,NW,319,0.0,0.0,73,0.00,,,0.00,Wunderground v.1.15,2013-05-18 14:35:00,
2013-05-18 07:40:00,49.4,41.1,30.12,NW,319,0.0,0.0,73,0.00,,,0.00,Wunderground v.1.15,2013-05-18 14:40:00,
2013-05-18 07:45:00,50.4,41.3,30.12,NW,319,0.0,0.0,71,0.00,,,0.00,Wunderground v.1.15,2013-05-18 14:45:00,
2013-05-18 07:50:00,51.3,41.5,30.12,NW,319,0.0,0.0,69,0.00,,,0.00,Wunderground v.1.15,2013-05-18 14:50:00,
2013-05-18 08:00:00,53.2,42.5,30.11,NW,319,0.0,0.0,67,0.00,,,0.00,Wunderground v.1.15,2013-05-18 15:00:00,
2013-05-18 08:05:00,53.9,42.8,30.11,NW,319,0.0,0.0,66,0.00,,,0.00,Wunderground v.1.15,2013-05-18 15:05:00,
2013-05-18 08:15:00,56.3,43.9,30.12,NNW,338,0.0,1.0,63,0.00,,,0.00,Wunderground v.1.15,2013-05-18 15:15:00,
2013-05-18 08:20:00,57.5,44.1,30.12,North,355,0.0,0.0,61,0.00,,,0.00,Wunderground v.1.15,2013-05-18 15:20:00,
2013-05-18 08:30:00,59.0,44.2,30.12,North,355,0.0,2.0,58,0.00,,,0.00,Wunderground v.1.15,2013-05-18 15:30:00,
2013-05-18 08:35:00,59.6,44.8,30.12,North,355,0.0,2.0,58,0.00,,,0.00,Wunderground v.1.15,2013-05-18 15:35:00,
2013-05-18 08:40:00,60.2,45.4,30.12,North,355,0.0,0.0,58,0.00,,,0.00,Wunderground v.1.15,2013-05-18 15:40:00,
2013-05-18 08:50:00,60.9,45.6,30.11,NNE,19,0.0,0.0,57,0.00,,,0.00,Wunderground v.1.15,2013-05-18 15:50:00,
2013-05-18 08:55:00,61.3,45.5,30.11,NNE,19,0.0,0.0,56,0.00,,,0.00,Wunderground v.1.15,2013-05-18 15:55:00,
2013-05-18 09:05:00,61.8,44.5,30.12,SW,221,1.0,2.0,53,0.00,,,0.00,Wunderground v.1.15,2013-05-18 16:05:00,
2013-05-18 09:10:00,62.0,44.7,30.12,SW,217,1.0,4.0,53,0.00,,,0.00,Wunderground v.1.15,2013-05-18 16:10:00,
2013-05-18 09:15:00,62.7,45.3,30.11,SSW,193,1.0,4.0,53,0.00,,,0.00,Wunderground v.1.15,2013-05-18 16:15:00,
2013-05-18 09:20:00,64.0,45.0,30.11,East,92,0.0,2.0,50,0.00,,,0.00,Wunderground v.1.15,2013-05-18 16:20:00,
2013-05-18 09:25:00,64.5,45.4,30.11,East,92,0.0,2.0,50,0.00,,,0.00,Wunderground v.1.15,2013-05-18 16:25:00,
2013-05-18 09:30:00,64.7,45.6,30.11,NNE,22,0.0,2.0,50,0.00,,,0.00,Wunderground v.1.15,2013-05-18 16:30:00,
2013-05-18 09:40:00,66.0,45.7,30.11,NW,314,1.0,2.0,48,0.00,,,0.00,Wunderground v.1.15,2013-05-18 16:40:00,
2013-05-18 09:45:00,66.0,45.2,30.10,WNW,286,1.0,2.0,47,0.00,,,0.00,Wunderground v.1.15,2013-05-18 16:45:00,
2013-05-18 09:55:00,66.9,44.9,30.10,East,80,1.0,2.0,45,0.00,,,0.00,Wunderground v.1.15,2013-05-18 16:55:00,
2013-05-18 10:00:00,67.3,45.2,30.10,SE,126,2.0,2.0,45,0.00,,,0.00,Wunderground v.1.15,2013-05-18 17:00:00,
2013-05-18 10:10:00,68.6,44.6,30.10,ENE,76,0.0,0.0,42,0.00,,,0.00,Wunderground v.1.15,2013-05-18 17:10:00,
2013-05-18 10:15:00,68.9,44.2,30.10,ENE,73,1.0,1.0,41,0.00,,,0.00,Wunderground v.1.15,2013-05-18 17:15:00,
2013-05-18 10:20:00,69.3,44.6,30.10,ENE,74,1.0,1.0,41,0.00,,,0.00,Wunderground v.1.15,2013-05-18 17:20:00,
2013-05-18 10:30:00,69.3,43.9,30.10,ESE,104,2.0,2.0,40,0.00,,,0.00,Wunderground v.1.15,2013-05-18 17:30:00,
2013-05-18 10:35:00,69.9,45.8,30.10,East,96,0.0,2.0,42,0.00,,,0.00,Wunderground v.1.15,2013-05-18 17:35:00,
2013-05-18 10:45:00,71.1,44.2,30.10,West,281,1.0,1.0,38,0.00,,,0.00,Wunderground v.1.15,2013-05-18 17:45:00,
2013-05-18 10:50:00,71.1,44.2,30.10,NNW,333,1.0,1.0,38,0.00,,,0.00,Wunderground v.1.15,2013-05-18 17:50:00,
2013-05-18 11:00:00,71.5,42.4,30.10,SSE,157,2.0,2.0,35,0.00,,,0.00,Wunderground v.1.15,2013-05-18 18:00:00,
2013-05-18 11:05:00,71.8,41.9,30.10,SW,222,2.0,3.0,34,0.00,,,0.00,Wunderground v.1.15,2013-05-18 18:05:00,
2013-05-18 11:10:00,71.8,42.7,30.10,SSW,211,3.0,3.0,35,0.00,,,0.00,Wunderground v.1.15,2013-05-18 18:10:00,
2013-05-18 11:20:00,73.2,41.6,30.10,WNW,286,1.0,4.0,32,0.00,,,0.00,Wunderground v.1.15,2013-05-18 18:20:00,
2013-05-18 11:25:00,72.5,41.7,30.10,NNW,339,3.0,6.0,33,0.00,,,0.00,Wunderground v.1.15,2013-05-18 18:25:00,
2013-05-18 11:30:00,72.8,40.4,30.09,NNE,13,4.0,4.0,31,0.00,,,0.00,Wunderground v.1.15,2013-05-18 18:30:00,
2013-05-18 11:35:00,72.8,40.4,30.09,SW,227,3.0,5.0,31,0.00,,,0.00,Wunderground v.1.15,2013-05-18 18:35:00,
2013-05-18 11:45:00,73.9,41.3,30.09,WNW,285,4.0,4.0,31,0.00,,,0.00,Wunderground v.1.15,2013-05-18 18:45:00,
2013-05-18 11:50:00,74.4,40.1,30.09,South,176,3.0,3.0,29,0.00,,,0.00,Wunderground v.1.15,2013-05-18 18:50:00,
2013-05-18 11:55:00,74.9,38.7,30.09,SSW,194,2.0,3.0,27,0.00,,,0.00,Wunderground v.1.15,2013-05-18 18:55:00,
2013-05-18 12:00:00,75.1,38.8,30.09,ENE,78,3.0,5.0,27,0.00,,,0.00,Wunderground v.1.15,2013-05-18 19:00:00,
2013-05-18 12:10:00,75.6,40.2,30.09,SE,133,2.0,3.0,28,0.00,,,0.00,Wunderground v.1.15,2013-05-18 19:10:00,
2013-05-18 12:15:00,75.6,40.2,30.08,SSW,203,2.0,3.0,28,0.00,,,0.00,Wunderground v.1.15,2013-05-18 19:15:00,
2013-05-18 12:25:00,76.7,38.2,30.08,ENE,76,2.0,2.0,25,0.00,,,0.00,Wunderground v.1.15,2013-05-18 19:25:00,
2013-05-18 12:30:00,77.0,39.5,30.08,ENE,70,2.0,3.0,26,0.00,,,0.00,Wunderground v.1.15,2013-05-18 19:30:00,
2013-05-18 12:40:00,76.3,37.9,30.08,East,82,3.0,3.0,25,0.00,,,0.00,Wunderground v.1.15,2013-05-18 19:40:00,
2013-05-18 12:45:00,77.7,38.0,30.07,SSE,161,1.0,3.0,24,0.00,,,0.00,Wunderground v.1.15,2013-05-18 19:45:00,
2013-05-18 12:50:00,77.7,38.0,30.07,East,92,0.0,0.0,24,0.00,,,0.00,Wunderground v.1.15,2013-05-18 19:50:00,
2013-05-18 13:00:00,78.6,37.7,30.07,SSE,148,1.0,1.0,23,0.00,,,0.00,Wunderground v.1.15,2013-05-18 20:00:00,
2013-05-18 13:05:00,78.6,36.6,30.07,South,181,1.0,2.0,22,0.00,,,0.00,Wunderground v.1.15,2013-05-18 20:05:00,
2013-05-18 13:15:00,79.8,36.4,30.06,SE,145,2.0,2.0,21,0.00,,,0.00,Wunderground v.1.15,2013-05-18 20:15:00,
2013-05-18 13:20:00,80.3,36.8,30.06,WSW,237,2.0,7.0,21,0.00,,,0.00,Wunderground v.1.15,2013-05-18 20:20:00,
2013-05-18 13:25:00,80.5,37.0,30.06,WNW,300,3.0,7.0,21,0.00,,,0.00,Wunderground v.1.15,2013-05-18 20:25:00,
2013-05-18 13:30:00,79.8,33.9,30.06,WSW,255,4.0,4.0,19,0.00,,,0.00,Wunderground v.1.15,2013-05-18 20:30:00,
2013-05-18 13:40:00,80.1,32.7,30.06,South,186,2.0,2.0,18,0.00,,,0.00,Wunderground v.1.15,2013-05-18 20:40:00,
2013-05-18 13:45:00,80.3,32.9,30.06,WSW,242,3.0,3.0,18,0.00,,,0.00,Wunderground v.1.15,2013-05-18 20:45:00,
2013-05-18 13:50:00,79.9,33.9,30.06,WSW,241,2.0,2.0,19,0.00,,,0.00,Wunderground v.1.15,2013-05-18 20:50:00,
2013-05-18 14:00:00,79.8,33.9,30.05,WNW,284,4.0,4.0,19,0.00,,,0.00,Wunderground v.1.15,2013-05-18 21:00:00,
2013-05-18 14:05:00,79.8,37.6,30.05,NNW,340,3.0,4.0,22,0.00,,,0.00,Wunderground v.1.15,2013-05-18 21:05:00,
2013-05-18 14:10:00,79.4,38.4,30.05,SSE,149,3.0,3.0,23,0.00,,,0.00,Wunderground v.1.15,2013-05-18 21:10:00,
2013-05-18 14:15:00,80.7,33.2,30.05,SE,140,4.0,4.0,18,0.00,,,0.00,Wunderground v.1.15,2013-05-18 21:15:00,
2013-05-18 14:20:00,81.2,36.3,30.05,SSE,167,4.0,4.0,20,0.00,,,0.00,Wunderground v.1.15,2013-05-18 21:20:00,
2013-05-18 14:30:00,81.6,39.1,30.04,NW,319,2.0,6.0,22,0.00,,,0.00,Wunderground v.1.15,2013-05-18 21:30:00,
2013-05-18 14:35:00,80.3,34.3,30.04,SSW,213,5.0,6.0,19,0.00,,,0.00,Wunderground v.1.15,2013-05-18 21:35:00,
2013-05-18 14:40:00,79.9,33.9,30.04,West,264,6.0,6.0,19,0.00,,,0.00,Wunderground v.1.15,2013-05-18 21:40:00,
2013-05-18 14:55:00,82.2,35.8,30.05,ESE,113,1.0,2.0,19,0.00,,,0.00,Wunderground v.1.15,2013-05-18 21:55:00,
2013-05-18 15:05:00,82.8,38.9,30.04,SW,221,2.0,3.0,21,0.00,,,0.00,Wunderground v.1.15,2013-05-18 22:05:00,
2013-05-18 15:10:00,81.6,39.1,30.04,West,275,5.0,10.0,22,0.00,,,0.00,Wunderground v.1.15,2013-05-18 22:10:00,
2013-05-18 15:20:00,81.4,37.7,30.04,WNW,290,8.0,8.0,21,0.00,,,0.00,Wunderground v.1.15,2013-05-18 22:20:00,
2013-05-18 15:25:00,81.2,38.7,30.04,NNW,338,7.0,8.0,22,0.00,,,0.00,Wunderground v.1.15,2013-05-18 22:25:00,
2013-05-18 15:30:00,81.1,38.6,30.04,West,269,5.0,11.0,22,0.00,,,0.00,Wunderground v.1.15,2013-05-18 22:30:00,
2013-05-18 15:40:00,80.9,38.5,30.04,WNW,284,5.0,5.0,22,0.00,,,0.00,Wunderground v.1.15,2013-05-18 22:40:00,
2013-05-18 15:45:00,80.3,38.0,30.04,SW,216,6.0,7.0,22,0.00,,,0.00,Wunderground v.1.15,2013-05-18 22:45:00,
2013-05-18 15:55:00,81.1,39.8,30.04,WSW,248,7.0,8.0,23,0.00,,,0.00,Wunderground v.1.15,2013-05-18 22:55:00,
2013-05-18 16:00:00,81.6,40.2,30.03,SSW,198,7.0,13.0,23,0.00,,,0.00,Wunderground v.1.15,2013-05-18 23:00:00,
2013-05-18 16:10:00,82.0,39.4,30.03,WSW,250,8.0,8.0,22,0.00,,,0.00,Wunderground v.1.15,2013-05-18 23:10:00,
2013-05-18 16:15:00,82.2,39.6,30.03,SW,232,6.0,8.0,22,0.00,,,0.00,Wunderground v.1.15,2013-05-18 23:15:00,
2013-05-18 16:20:00,82.2,39.6,30.03,West,279,6.0,9.0,22,0.00,,,0.00,Wunderground v.1.15,2013-05-18 23:20:00,
2013-05-18 16:30:00,81.2,38.7,30.03,West,265,10.0,11.0,22,0.00,,,0.00,Wunderground v.1.15,2013-05-18 23:30:00,
2013-05-18 16:35:00,81.1,38.6,30.03,NW,309,10.0,12.0,22,0.00,,,0.00,Wunderground v.1.15,2013-05-18 23:35:00,
2013-05-18 16:45:00,81.1,38.6,30.03,WNW,290,9.0,10.0,22,0.00,,,0.00,Wunderground v.1.15,2013-05-18 23:45:00,
2013-05-18 16:50:00,81.1,37.5,30.03,WNW,282,9.0,11.0,21,0.00,,,0.00,Wunderground v.1.15,2013-05-18 23:50:00,
2013-05-18 17:00:00,80.9,36.1,30.04,West,275,11.0,11.0,20,0.00,,,0.00,Wunderground v.1.15,2013-05-19 00:00:00,
2013-05-18 17:05:00,80.7,34.6,30.04,WSW,246,10.0,11.0,19,0.00,,,0.00,Wunderground v.1.15,2013-05-19 00:05:00,
2013-05-18 17:10:00,80.7,34.6,30.04,West,271,11.0,11.0,19,0.00,,,0.00,Wunderground v.1.15,2013-05-19 00:10:00,
2013-05-18 17:20:00,80.3,35.6,30.04,West,263,9.0,9.0,20,0.00,,,0.00,Wunderground v.1.15,2013-05-19 00:20:00,
2013-05-18 17:25:00,80.5,35.7,30.04,West,267,8.0,10.0,20,0.00,,,0.00,Wunderground v.1.15,2013-05-19 00:25:00,
2013-05-18 17:35:00,80.1,36.6,30.04,WNW,292,9.0,14.0,21,0.00,,,0.00,Wunderground v.1.15,2013-05-19 00:35:00,
2013-05-18 17:40:00,79.9,37.6,30.04,WNW,289,9.0,10.0,22,0.00,,,0.00,Wunderground v.1.15,2013-05-19 00:40:00,
2013-05-18 17:50:00,79.8,39.8,30.04,NNW,340,8.0,8.0,24,0.00,,,0.00,Wunderground v.1.15,2013-05-19 00:50:00,
2013-05-18 17:55:00,79.9,38.8,30.04,NW,311,7.0,10.0,23,0.00,,,0.00,Wunderground v.1.15,2013-05-19 00:55:00,
2013-05-18 18:00:00,79.4,37.2,30.03,WNW,299,8.0,12.0,22,0.00,,,0.00,Wunderground v.1.15,2013-05-19 01:00:00,
2013-05-18 18:10:00,79.2,39.3,30.03,WNW,295,9.0,9.0,24,0.00,,,0.00,Wunderground v.1.15,2013-05-19 01:10:00,
2013-05-18 18:15:00,79.2,40.3,30.03,WNW,303,8.0,9.0,25,0.00,,,0.00,Wunderground v.1.15,2013-05-19 01:15:00,
2013-05-18 18:20:00,78.8,40.0,30.03,West,270,8.0,8.0,25,0.00,,,0.00,Wunderground v.1.15,2013-05-19 01:20:00,
2013-05-18 18:30:00,78.8,41.0,30.03,WNW,298,6.0,13.0,26,0.00,,,0.00,Wunderground v.1.15,2013-05-19 01:30:00,
2013-05-18 18:35:00,78.5,40.7,30.03,WSW,256,8.0,13.0,26,0.00,,,0.00,Wunderground v.1.15,2013-05-19 01:35:00,
2013-05-18 18:40:00,78.1,40.4,30.03,WSW,244,9.0,9.0,26,0.00,,,0.00,Wunderground v.1.15,2013-05-19 01:40:00,
2013-05-18 18:50:00,77.6,41.0,30.04,NW,317,8.0,8.0,27,0.00,,,0.00,Wunderground v.1.15,2013-05-19 01:50:00,
2013-05-18 18:55:00,77.4,40.8,30.04,WSW,240,8.0,8.0,27,0.00,,,0.00,Wunderground v.1.15,2013-05-19 01:55:00,
2013-05-18 19:00:00,77.2,41.6,30.03,WNW,288,7.0,7.0,28,0.00,,,0.00,Wunderground v.1.15,2013-05-19 02:00:00,
2013-05-18 19:05:00,77.2,41.6,30.03,West,271,5.0,7.0,28,0.00,,,0.00,Wunderground v.1.15,2013-05-19 02:05:00,
2013-05-18 19:15:00,76.5,41.9,30.04,NW,319,7.0,8.0,29,0.00,,,0.00,Wunderground v.1.15,2013-05-19 02:15:00,
2013-05-18 19:20:00,76.1,42.4,30.04,WNW,301,8.0,8.0,30,0.00,,,0.00,Wunderground v.1.15,2013-05-19 02:20:00,
2013-05-18 19:25:00,75.8,43.0,30.04,West,271,9.0,16.0,31,0.00,,,0.00,Wunderground v.1.15,2013-05-19 02:25:00,
2013-05-18 19:30:00,75.3,42.6,30.04,West,280,11.0,11.0,31,0.00,,,0.00,Wunderground v.1.15,2013-05-19 02:30:00,
2013-05-18 19:40:00,74.6,44.4,30.04,SW,224,9.0,9.0,34,0.00,,,0.00,Wunderground v.1.15,2013-05-19 02:40:00,
2013-05-18 19:45:00,74.0,44.6,30.05,NW,321,6.0,9.0,35,0.00,,,0.00,Wunderground v.1.15,2013-05-19 02:45:00,
2013-05-18 19:50:00,73.7,45.1,30.05,WSW,251,5.0,5.0,36,0.00,,,0.00,Wunderground v.1.15,2013-05-19 02:50:00,
2013-05-18 20:00:00,72.7,45.6,30.05,WNW,283,8.0,11.0,38,0.00,,,0.00,Wunderground v.1.15,2013-05-19 03:00:00,
2013-05-18 20:05:00,72.1,45.8,30.05,West,277,9.0,20.0,39,0.00,,,0.00,Wunderground v.1.15,2013-05-19 03:05:00,
2013-05-18 20:10:00,71.8,45.5,30.05,SW,229,9.0,9.0,39,0.00,,,0.00,Wunderground v.1.15,2013-05-19 03:10:00,
2013-05-18 20:20:00,71.1,45.5,30.06,NNW,332,7.0,12.0,40,0.00,,,0.00,Wunderground v.1.15,2013-05-19 03:20:00,
2013-05-18 20:25:00,70.8,45.9,30.06,WSW,247,8.0,12.0,41,0.00,,,0.00,Wunderground v.1.15,2013-05-19 03:25:00,
2013-05-18 20:30:00,70.4,45.6,30.06,West,269,9.0,9.0,41,0.00,,,0.00,Wunderground v.1.15,2013-05-19 03:30:00,
2013-05-18 20:40:00,69.9,45.8,30.06,West,265,5.0,5.0,42,0.00,,,0.00,Wunderground v.1.15,2013-05-19 03:40:00,
2013-05-18 20:45:00,69.4,45.9,30.07,SW,227,5.0,6.0,43,0.00,,,0.00,Wunderground v.1.15,2013-05-19 03:45:00,
2013-05-18 20:50:00,69.1,45.7,30.07,WNW,282,4.0,4.0,43,0.00,,,0.00,Wunderground v.1.15,2013-05-19 03:50:00,
2013-05-18 21:00:00,68.6,45.2,30.07,SW,228,6.0,6.0,43,0.00,,,0.00,Wunderground v.1.15,2013-05-19 04:00:00,
2013-05-18 21:05:00,68.4,45.0,30.07,WNW,290,6.0,13.0,43,0.00,,,0.00,Wunderground v.1.15,2013-05-19 04:05:00,
2013-05-18 21:10:00,68.3,44.9,30.07,WNW,288,7.0,7.0,43,0.00,,,0.00,Wunderground v.1.15,2013-05-19 04:10:00,
2013-05-18 21:15:00,68.1,44.7,30.07,West,267,6.0,7.0,43,0.00,,,0.00,Wunderground v.1.15,2013-05-19 04:15:00,
2013-05-18 21:20:00,67.8,45.1,30.07,West,280,5.0,5.0,44,0.00,,,0.00,Wunderground v.1.15,2013-05-19 04:20:00,
2013-05-18 21:30:00,67.4,44.7,30.08,West,270,6.0,6.0,44,0.00,,,0.00,Wunderground v.1.15,2013-05-19 04:30:00,
2013-05-18 21:35:00,67.3,45.2,30.08,West,281,5.0,7.0,45,0.00,,,0.00,Wunderground v.1.15,2013-05-19 04:35:00,
2013-05-18 21:40:00,67.1,45.0,30.08,West,267,6.0,6.0,45,0.00,,,0.00,Wunderground v.1.15,2013-05-19 04:40:00,
2013-05-18 21:45:00,66.9,44.9,30.08,West,272,7.0,7.0,45,0.00,,,0.00,Wunderground v.1.15,2013-05-19 04:45:00,
2013-05-18 21:50:00,66.6,45.2,30.08,West,275,6.0,6.0,46,0.00,,,0.00,Wunderground v.1.15,2013-05-19 04:50:00,
2013-05-18 22:00:00,66.1,44.7,30.08,WSW,258,3.0,3.0,46,0.00,,,0.00,Wunderground v.1.15,2013-05-19 05:00:00,
2013-05-18 22:05:00,66.0,45.2,30.08,WSW,256,3.0,3.0,47,0.00,,,0.00,Wunderground v.1.15,2013-05-19 05:05:00,
2013-05-18 22:10:00,65.3,45.1,30.08,WNW,287,3.0,4.0,48,0.00,,,0.00,Wunderground v.1.15,2013-05-19 05:10:00,
2013-05-18 22:20:00,64.5,44.9,30.08,West,264,3.0,4.0,49,0.00,,,0.00,Wunderground v.1.15,2013-05-19 05:20:00,
2013-05-18 22:25:00,64.3,44.7,30.08,West,264,2.0,4.0,49,0.00,,,0.00,Wunderground v.1.15,2013-05-19 05:25:00,
2013-05-18 22:30:00,64.3,44.7,30.09,West,264,1.0,1.0,49,0.00,,,0.00,Wunderground v.1.15,2013-05-19 05:30:00,
2013-05-18 22:40:00,63.7,44.7,30.09,West,264,1.0,2.0,50,0.00,,,0.00,Wunderground v.1.15,2013-05-19 05:40:00,
2013-05-18 22:50:00,63.1,44.2,30.10,West,264,2.0,3.0,50,0.00,,,0.00,Wunderground v.1.15,2013-05-19 05:50:00,
2013-05-18 22:55:00,62.6,44.2,30.10,West,264,3.0,3.0,51,0.00,,,0.00,Wunderground v.1.15,2013-05-19 05:55:00,
2013-05-18 23:00:00,62.3,44.4,30.10,West,264,3.0,3.0,52,0.00,,,0.00,Wunderground v.1.15,2013-05-19 06:00:00,
2013-05-18 23:10:00,62.0,44.2,30.10,West,267,3.0,3.0,52,0.00,,,0.00,Wunderground v.1.15,2013-05-19 06:10:00,
2013-05-18 23:15:00,61.3,44.0,30.10,West,267,1.0,3.0,53,0.00,,,0.00,Wunderground v.1.15,2013-05-19 06:15:00,
2013-05-18 23:20:00,61.2,43.9,30.10,West,267,1.0,1.0,53,0.00,,,0.00,Wunderground v.1.15,2013-05-19 06:20:00,
2013-05-18 23:30:00,60.9,43.6,30.10,West,267,1.0,3.0,53,0.00,,,0.00,Wunderground v.1.15,2013-05-19 06:30:00,
2013-05-18 23:35:00,61.2,43.4,30.10,West,267,3.0,3.0,52,0.00,,,0.00,Wunderground v.1.15,2013-05-19 06:35:00,
2013-05-18 23:40:00,62.0,43.7,30.10,West,266,3.0,3.0,51,0.00,,,0.00,Wunderground v.1.15,2013-05-19 06:40:00,
2013-05-18 23:45:00,62.7,43.3,30.10,West,271,4.0,4.0,49,0.00,,,0.00,Wunderground v.1.15,2013-05-19 06:45:00,
2013-05-18 23:55:00,61.8,43.5,30.10,West,268,3.0,6.0,51,0.00,,,0.00,Wunderground v.1.15,2013-05-19 06:55:00,